CZ-6A DEB, 54318

Orbit data source: Space-Track

CZ-6A DEB, 54318 is space debris in SSO originally from a launch on Fri, 11 Nov 2022 UTC launched from the Taiyaun Space Center, China (TSC). Debris objects in space refer to the collection of defunct objects orbiting the Earth. Examples of debris include non-operational satellites, rocket bodies, and fragments generated from explosions, collisions, or faulty payload assembly.

Loading next visibility...
Identifier
54318, 2022-151BM
Orbit
SSO
Country
Flag of CNCN / PRC
Related business
Manufacturer
SAST
Mission
Spacecraft
Bus & Motor
Unknown
Mass
Unknown
Launch date (UTC)
2022-11-11 (4 years ago)
Launch vehicle
Unknown
Launch site
Taiyaun Space Center, China (TSC)
Object type
Payload
Rocket body
Debris
Shape & HBR
Unknown shape, 0.1 m
Radar Cross Section
Medium (>0.1 m² and <1 m²)

Expand to show TLE details & history
Last TLE update: 12 hours ago

TLE from 12 hours ago
0 CZ-6A DEB
1 54318U 22151BM  26235.98371987  .00000714  00000-0  40834-3 0  9996
2 54318  98.8477 235.2532 0052013 146.3077 214.1419 14.12010799193983
Epoch: 2026-08-23T23:36Z
TLE epoch observation values (Epoch: 2026-08-23T23:36:33.396Z)
Latitude
-0.00003°
Longitude
-91.15789°
Altitude
886.592 km
Speed
7.393 km/s
True Right ascension
15h 41m 00s
True Declination
0° 00' 00"
Sunlit
Object was in daylight at epoch
Visualization orbit readout
Latitude
Unknown
Longitude
Unknown
Altitude
Unknown
Speed
Unknown
Apparent Right ascension
Unknown
Apparent Declination
Unknown
Sunlit
N/A
Visualization observer readout
Local Sidereal Time
02:51:33
Azimuth
Unknown
Elevation
Unknown
Doppler factor
Unknown
Orbital elements
Apogee altitude
887.269 km
Perigee altitude
812.081 km
Semi-major axis
7,227.812 km
Eccentricity
0.0052
Inclination
98.8477°
RAAN
235.2532°
Arg. of periapsis
146.3077°
True anomaly
213.80918°
Mean anomaly
214.1419°
Eccentric anomaly
213.97536°
Mean motion
3.5321 °/min
Orbital period
101.92 mins
BSTAR
0.00040834
Loading maneuver chart data...
Computing Atmospheric mass density...
Loading historical data...
Loading historical data...
Loading historical data...
Loading historical data...
Loading historical data...
Loading historical data...
Loading historical data...

Documentation

Showing up to 5 results
|